TimeMDT,TemperatureF,Dew PointF,Humidity,Sea Level PressureIn,VisibilityMPH,Wind Direction,Wind SpeedMPH,Gust SpeedMPH,PrecipitationIn,Events,Conditions,WindDirDegrees,DateUTC
12:53 AM,15.1,3.0,59,30.23,10.0,NNW,19.6,28.8,N/A,,Clear,340,2013-04-10 06:53:00
1:53 AM,15.1,3.0,59,30.24,10.0,North,19.6,25.3,N/A,,Clear,350,2013-04-10 07:53:00
2:53 AM,15.1,3.9,61,30.23,10.0,NNW,13.8,-,N/A,,Clear,330,2013-04-10 08:53:00
4:53 AM,16.0,3.9,59,30.24,10.0,NNW,12.7,19.6,N/A,,Clear,340,2013-04-10 10:53:00
5:53 AM,16.0,3.9,59,30.24,10.0,NW,12.7,-,N/A,,Clear,310,2013-04-10 11:53:00
6:53 AM,16.0,3.9,59,30.23,10.0,NW,12.7,-,N/A,,Clear,310,2013-04-10 12:53:00
7:53 AM,17.1,3.9,56,30.23,10.0,NW,16.1,-,N/A,,Clear,310,2013-04-10 13:53:00
8:53 AM,23.0,5.0,46,30.22,10.0,NNW,19.6,28.8,N/A,,Clear,340,2013-04-10 14:53:00
9:22 AM,24.8,5.0,43,30.12,10.0,NNW,17.3,26.5,N/A,,Partly Cloudy,330,2013-04-10 15:22:00
9:53 AM,28.0,5.0,38,30.21,10.0,NNW,19.6,26.5,N/A,,Clear,330,2013-04-10 15:53:00
11:24 AM,32.0,5.0,32,30.07,10.0,NNW,23.0,31.1,N/A,,Partly Cloudy,340,2013-04-10 17:24:00
11:53 AM,33.1,5.0,31,30.15,10.0,NNW,20.7,29.9,N/A,,Partly Cloudy,330,2013-04-10 17:53:00
12:53 PM,34.0,6.1,31,30.11,10.0,NNW,23.0,29.9,N/A,,Clear,340,2013-04-10 18:53:00
1:50 PM,37.4,6.8,28,30.02,10.0,NNW,19.6,33.4,N/A,,Partly Cloudy,330,2013-04-10 19:50:00
1:53 PM,37.0,6.1,28,30.09,10.0,North,23.0,32.2,N/A,,Partly Cloudy,350,2013-04-10 19:53:00
2:53 PM,37.0,7.0,29,30.07,10.0,NNW,20.7,29.9,N/A,,Clear,340,2013-04-10 20:53:00
3:53 PM,37.0,8.1,30,30.04,10.0,NNW,18.4,29.9,N/A,,Clear,340,2013-04-10 21:53:00
4:53 PM,35.1,8.1,33,30.04,10.0,NNW,20.7,31.1,N/A,,Clear,340,2013-04-10 22:53:00
5:53 PM,33.1,8.1,35,30.04,10.0,North,20.7,28.8,N/A,,Scattered Clouds,350,2013-04-10 23:53:00
6:53 PM,30.0,8.1,40,30.06,10.0,North,13.8,-,N/A,,Clear,360,2013-04-11 00:53:00
7:53 PM,28.9,9.0,43,30.07,10.0,North,12.7,-,N/A,,Overcast,360,2013-04-11 01:53:00
8:53 PM,28.0,8.1,43,30.07,10.0,North,10.4,-,N/A,,Overcast,350,2013-04-11 02:53:00
9:53 PM,26.1,9.0,49,30.08,10.0,North,8.1,-,N/A,,Mostly Cloudy,350,2013-04-11 03:53:00
10:53 PM,25.0,9.0,51,30.06,10.0,Calm,Calm,-,N/A,,Mostly Cloudy,0,2013-04-11 04:53:00
11:53 PM,24.1,9.0,53,30.02,10.0,Calm,Calm,-,N/A,,Overcast,0,2013-04-11 05:53:00